Location: Christchurch
(43.5330°S, 172.6330°E)
Time: 06:24:07
(UTC+12:00)

ISS - Visible Passes

Search period start: 15 August 2020 00:00
Search period end: 25 August 2020 00:00
Orbit: 418 x 420 km, 51.6° (Epoch: 15 August)

Date Brightness Start Highest point End Pass type
(mag) Time Alt. Az. Time Alt. Az. Time Alt. Az.
18 Aug -1.7 19:16:25 10° N 19:17:53 16° NNE 19:17:53 16° NNE visible
19 Aug -1.4 18:30:24 10° NNE 18:31:27 11° NE 18:32:29 10° ENE visible
19 Aug -1.6 20:04:18 10° NW 20:05:48 24° NW 20:05:48 24° NW visible
20 Aug -3.4 19:16:50 10° NW 19:20:08 48° NE 19:20:37 44° ENE visible
21 Aug -2.6 18:29:35 10° NNW 18:32:36 29° NE 18:35:18 12° ESE visible
21 Aug -2.0 20:05:59 10° W 20:08:17 33° WSW 20:08:17 33° WSW visible
22 Aug -3.5 19:18:11 10° WNW 19:21:36 66° SSW 19:22:52 35° SE visible
23 Aug -3.7 18:30:31 10° NW 18:33:56 80° NE 18:37:22 10° ESE visible
23 Aug -1.6 20:08:03 10° WSW 20:10:20 25° SW 20:10:20 25° SW visible
24 Aug -2.4 19:20:04 10° W 19:23:14 33° SSW 19:24:45 22° SSE visible
